www.pogodaiklimat.ru

Погода и климат >> Архив погоды >> Италия >> Мартина-Франка


ПОГОДА в Мартина-Франка

  • Прогноз погоды в Мартина-Франка
  • Монитор погоды в Мартина-Франка

АРХИВ ПОГОДЫ в Мартина-Франка

Время (UTC), дата Ветер
(напр.,м/с)
 
Видим.   Явления Облачность Т
(С)
Тd
(С)
f
(%)
Тe
(С)
Тes
(С)
Комфортность P
(гПа)
Po
(гПа)
Тmin
(С)
Tmax
(С)
R
(мм)
R24
(мм)
S
(см)
07 11.06 ЮЗ 1 н/о н/о +25.2 +19.3 70 +30 +30 душно 1011.1 960.4
08 11.06 ЮЗ 2 н/о н/о +26.7 +20.0 67 +33 +33 очень
душно
1011.1 960.8
09 11.06 С 3 н/о н/о +28.5 +19.9 60 +35 +35 очень
душно
1010.9 960.9
10 11.06 ЮЗ 3 н/о н/о +30.1 +20.0 55 +37 +37 очень
душно
1010.7 960.9
11 11.06 Ю 3 н/о н/о +31.3 +19.9 51 +38 +38 очень
душно
1010.1 960.6
12 11.06 В 3 н/о н/о +31.6 +18.9 47 +37 +37 очень
душно
1009.9 960.4
13 11.06 ЮЗ 4 н/о н/о +32.0 +19.9 49 +38 +38 очень
душно
1010.0 960.6
14 11.06 С 4 н/о н/о +31.0 +19.0 49 +36 +36 очень
душно
1010.1 960.5
15 11.06 Ю 3 н/о н/о +29.7 +17.8 49 +34 +34 очень
душно
1010.2 960.3
16 11.06 ЮВ 2 н/о н/о +28.4 +18.7 56 +34 +34 очень
душно
1010.2 960.2
17 11.06 В 2 н/о н/о +28.1 +17.6 53 +32 +32 душно 1010.3 960.2
18 11.06 ЮЗ 1 н/о н/о +24.4 +15.3 57 +27 +27 жарко 1011.6 960.8 +32.4
19 11.06 ЮВ 1 н/о н/о +21.9 +14.9 64 +25 +25 комфорт 1012.2 961.0
20 11.06 В 3 н/о н/о +22.9 +16.6 68 +28 +28 душно 1012.3 961.3
21 11.06 ЮВ 1 н/о н/о +22.6 +16.1 67 +27 +27 душно 1012.4 961.3
22 11.06 ЮВ 1 н/о н/о +21.8 +15.8 69 +25 +25 комфорт 1012.5 961.2
23 11.06 ЮЗ 1 н/о н/о +21.6 +15.1 67 +25 +25 комфорт 1013.0 961.6
00 12.06 Ю 1 н/о н/о +21.0 +15.5 71 +26 +26 душно 1012.6 961.2
01 12.06 ЮВ 6 н/о н/о +23.4 +17.1 68 +29 +29 душно 1011.4 960.4
02 12.06 ЮВ 1 н/о н/о +20.4 +16.2 77 +24 +24 комфорт 1012.1 960.6
03 12.06 В 3 н/о н/о +19.7 +18.5 93 +23 +23 комфорт 1012.2 960.6
04 12.06 ЮВ 2 н/о н/о +20.9 +18.4 86 +26 +26 душно 1012.1 960.7
05 12.06 ЮВ 2 н/о н/о +22.2 +20.1 88 +28 +28 душно 1012.0 960.9
06 12.06 ЮВ 2 н/о н/о +25.9 +19.7 69 +32 +32 очень
душно
1011.4 961.0 +19.1 203
07 12.06 З 2 н/о н/о +27.7 +21.0 67 +35 +35 очень
душно
1011.7 961.5
08 12.06 Ю 2 н/о н/о +27.8 +21.3 68 +35 +35 очень
душно
1011.8 961.6
09 12.06 З 3 н/о н/о +28.6 +23.0 72 +38 +38 очень
душно
1012.4 962.4
10 12.06 ЮВ 3 н/о н/о +29.0 +22.2 67 +38 +38 очень
душно
1012.3 962.3
11 12.06 СВ 3 н/о н/о +29.7 +21.9 63 +38 +38 очень
душно
1012.7 962.9
12 12.06 С 5 н/о н/о +29.6 +21.2 61 +37 +37 очень
душно
1013.1 963.1
13 12.06 З 4 н/о н/о +28.1 +18.2 55 +33 +33 очень
душно
1013.0 962.7
14 12.06 С 4 н/о н/о +29.7 +19.1 53 +35 +35 очень
душно
1012.8 962.8
15 12.06 ЮВ 2 н/о н/о +29.5 +19.2 54 +35 +35 очень
душно
1012.3 962.3
16 12.06 Ю 2 н/о н/о +28.3 +19.7 60 +34 +34 очень
душно
1012.6 962.4
17 12.06 З 1 н/о н/о +27.0 +19.3 63 +33 +33 очень
душно
1012.5 962.1
18 12.06 ЮВ 1 н/о н/о +24.5 +18.8 71 +29 +29 душно 1013.0 962.1 +30.7
19 12.06 СВ 2 н/о н/о +21.6 +18.3 82 +26 +26 душно 1013.7 962.3
20 12.06 ЮВ 2 н/о н/о +21.7 +12.8 57 +24 +24 комфорт 1014.1 962.7
21 12.06 ЮВ 1 н/о н/о +21.2 +13.5 61 +24 +24 комфорт 1014.4 962.9
22 12.06 Ю 2 н/о н/о +22.3 +14.1 60 +26 +26 жарко 1014.3 963.0
23 12.06 ЮВ 2 н/о н/о +21.0 +14.3 66 +25 +25 комфорт 1014.2 962.7
00 13.06 ЮВ 2 н/о н/о +22.1 +12.6 55 +25 +25 комфорт 1013.4 962.1
01 13.06 ЮВ 2 н/о н/о +21.9 +15.9 69 +26 +26 душно 1013.0 961.7
02 13.06 ЮВ 3 н/о н/о +19.9 +18.5 92 +23 +23 комфорт 1013.5 961.9
03 13.06 В 2 н/о н/о +18.8 +18.3 97 +21 +21 комфорт 1013.6 961.8
04 13.06 СВ 3 н/о н/о +18.3 +17.8 97 +19 +19 1014.2 962.3
05 13.06 С 6 н/о н/о +21.9 +19.4 86 +27 +27 душно 1013.6 962.4
06 13.06 С 1 н/о н/о +24.7 +19.5 73 +30 +30 очень
душно
1013.5 962.8 +18.2 0
07 13.06 В 1 н/о н/о +24.9 +23.1 90 +33 +33 очень
душно
1014.0 963.2
08 13.06 ЮЗ 1 н/о н/о +25.3 +22.3 83 +33 +33 очень
душно
1014.3 963.7
09 13.06 Ю 2 н/о н/о +29.4 +24.7 76 +42 +42 опасность
перегрева
1014.1 964.0
10 13.06 ЮЗ 3 н/о н/о +30.4 +25.2 74 +44 +44 опасность
перегрева
1014.2 964.2
11 13.06 ЮЗ 3 н/о н/о +31.1 +26.2 75 +47 +47 опасность
перегрева
1014.2 964.4
12 13.06 С 3 н/о н/о +31.5 +20.1 51 +38 +38 очень
душно
1014.1 964.4
13 13.06 С 2 н/о н/о +31.1 +24.2 67 +43 +43 опасность
перегрева
1014.3 964.5
14 13.06 В 3 н/о н/о +31.4 +19.0 48 +37 +37 очень
душно
1014.4 964.6
15 13.06 С 5 н/о н/о +30.9 +18.9 49 +36 +36 очень
душно
1014.7 964.8
16 13.06 С 5 н/о н/о +28.9 +18.9 55 +34 +34 очень
душно
1015.3 965.0
17 13.06 С 7 н/о н/о +26.7 +18.2 60 +31 +31 душно 1015.6 965.0
18 13.06 С 6 н/о н/о +24.7 +18.3 68 +29 +29 душно 1016.2 965.2 +32.7
19 13.06 С 7 н/о н/о +22.4 +17.7 75 +27 +27 душно 1016.7 965.3
20 13.06 С 7 н/о н/о +21.5 +17.0 76 +25 +25 комфорт 1017.4 965.9
21 13.06 С 6 н/о н/о +21.5 +17.0 76 +25 +25 комфорт 1017.5 965.9
22 13.06 С 8 н/о н/о +20.6 +17.9 85 +24 +24 комфорт 1017.6 965.9
23 13.06 С 9 н/о н/о +20.8 +17.5 81 +24 +24 комфорт 1017.3 965.6
00 14.06 С 10 н/о н/о +20.7 +16.9 79 +24 +24 комфорт 1017.1 965.4
01 14.06 С 11 н/о н/о +20.4 +16.8 80 +23 +23 комфорт 1016.7 965.0
02 14.06 С 10 н/о н/о +19.9 +16.7 82 +22 +22 комфорт 1016.5 964.7
03 14.06 С 10 н/о н/о +19.5 +17.4 88 +21 +21 комфорт 1016.9 965.0
04 14.06 С 10 н/о н/о +19.7 +17.2 85 +21 +21 комфорт 1017.1 965.3
05 14.06 С 10 н/о н/о +21.0 +16.5 75 +24 +24 комфорт 1017.1 965.5
06 14.06 С 10 н/о н/о +22.7 +17.3 72 +28 +28 душно 1017.0 965.7 +19.4 218
07 14.06 С 6 н/о н/о +24.8 +18.9 70 +30 +30 душно 1017.2 966.3
08 14.06 С 5 н/о н/о +27.0 +18.8 61 +32 +32 очень
душно
1017.4 966.8
09 14.06 СВ 6 н/о н/о +28.7 +17.5 51 +33 +33 очень
душно
1017.3 967.0
10 14.06 СВ 6 н/о н/о +29.7 +16.8 46 +33 +33 душно 1017.4 967.2
11 14.06 СЗ 5 н/о н/о +30.8 +15.2 39 +33 +33 душно 1017.2 967.3
12 14.06 С 7 н/о н/о +31.2 +14.8 37 +33 +33 жарко 1016.8 966.8
13 14.06 СВ 6 н/о н/о +31.7 +13.9 34 +33 +33 жарко 1016.3 966.4
14 14.06 С 6 н/о н/о +31.6 +14.3 35 +33 +33 жарко 1016.1 966.3
15 14.06 С 6 н/о н/о +31.0 +14.2 36 +33 +33 душно 1015.8 965.9
16 14.06 С 8 н/о н/о +29.9 +12.8 35 +31 +31 жарко 1015.5 965.4
17 14.06 С 6 н/о н/о +28.7 +12.9 38 +30 +30 жарко 1015.8 965.5
18 14.06 С 5 н/о н/о +26.2 +12.3 42 +28 +28 жарко 1016.1 965.4 +32.2
19 14.06 С 5 н/о н/о +23.8 +12.4 49 +26 +26 жарко 1016.6 965.5
20 14.06 С 5 н/о н/о +22.6 +11.6 50 +25 +25 комфорт 1017.1 965.8
21 14.06 С 6 н/о н/о +21.9 +10.7 49 +24 +24 комфорт 1017.5 966.0
22 14.06 С 8 н/о н/о +23.0 +10.4 45 +25 +25 комфорт 1017.1 965.8
23 14.06 С 8 н/о н/о +23.6 +9.5 41 +25 +25 комфорт 1016.1 965.0
00 15.06 С 8 н/о н/о +24.6 +9.3 38 +25 +25 комфорт 1015.4 964.5
01 15.06 С 7 н/о н/о +24.8 +11.3 43 +26 +26 жарко 1014.9 964.0
02 15.06 С 8 н/о н/о +24.0 +12.0 47 +26 +26 жарко 1014.8 963.8
03 15.06 С 7 н/о н/о +23.8 +12.1 48 +26 +26 жарко 1014.7 963.7
04 15.06 СВ 7 н/о н/о +23.3 +12.6 51 +26 +26 жарко 1014.9 963.8
05 15.06 С 5 н/о н/о +24.5 +14.8 55 +27 +27 жарко 1014.7 963.8
06 15.06 С 4 н/о н/о +27.9 +17.4 53 +32 +32 душно 1014.1 963.8 +21.8 207
07 15.06 С 4 н/о н/о +30.4 +18.5 49 +35 +35 очень
душно
1013.8 963.9
08 15.06 С 4 н/о н/о +29.7 +17.5 48 +34 +34 очень
душно
1014.1 964.0
09 15.06 СЗ 3 н/о н/о +30.8 +17.1 44 +35 +35 очень
душно
1013.9 964.0
10 15.06 СЗ 4 н/о н/о +33.8 +17.5 38 +37 +37 очень
душно
1013.2 963.9
11 15.06 З 4 н/о н/о +34.6 +16.0 33 +37 +37 очень
душно
1012.8 963.7
12 15.06 СЗ 5 н/о н/о +34.2 +14.7 31 +36 +36 душно 1012.6 963.3
13 15.06 СЗ 4 н/о н/о +33.5 +16.8 37 +37 +37 очень
душно
1012.6 963.2
14 15.06 С 6 н/о н/о +34.3 +16.7 35 +37 +37 очень
душно
1012.2 963.0
15 15.06 С 5 н/о н/о +33.4 +16.7 37 +36 +36 очень
душно
1011.7 962.4
16 15.06 СВ 5 н/о н/о +32.7 +14.8 34 +34 +34 очень
жарко
1011.2 961.8
17 15.06 В 2 н/о н/о +31.3 +15.7 39 +34 +34 душно 1011.5 961.9
18 15.06 СВ 1 н/о н/о +27.9 +14.5 44 +30 +30 жарко 1012.2 961.9 +35.8
19 15.06 З 1 н/о н/о +25.0 +15.0 54 +28 +28 жарко 1012.7 962.0
20 15.06 штиль 0 н/о н/о +23.7 +14.9 58 +27 +27 жарко 1013.5 962.5
21 15.06 штиль 0 н/о н/о +22.6 +14.1 59 +26 +26 жарко 1013.8 962.6
22 15.06 СЗ 1 н/о н/о +22.4 +12.6 54 +25 +25 комфорт 1013.6 962.4
23 15.06 СЗ 4 н/о н/о +23.1 +14.3 58 +27 +27 душно 1013.3 962.3
00 16.06 СЗ 8 н/о н/о +25.3 +15.0 53 +28 +28 жарко 1012.7 962.0
01 16.06 С 7 н/о н/о +24.1 +14.7 56 +27 +27 жарко 1012.6 961.7
02 16.06 С 8 н/о н/о +23.5 +14.4 57 +26 +26 жарко 1012.6 961.6
03 16.06 С 9 н/о н/о +23.7 +14.9 58 +27 +27 жарко 1012.1 961.2
04 16.06 С 9 н/о н/о +23.8 +13.9 54 +26 +26 жарко 1012.1 961.2
05 16.06 С 9 н/о н/о +24.3 +14.6 55 +27 +27 жарко 1012.2 961.4
06 16.06 С 9 н/о н/о +24.9 +15.4 56 +28 +28 жарко 1012.4 961.7 +21.8 517
07 16.06 С 9 н/о н/о +26.5 +16.7 55 +30 +30 душно 1012.5 962.0
08 16.06 С 5 н/о н/о +27.9 +16.8 51 +32 +32 душно 1012.7 962.5
09 16.06 СЗ 5 н/о н/о +29.1 +17.3 49 +33 +33 очень
душно
1013.0 962.9
10 16.06 С 6 н/о н/о +30.3 +19.0 51 +36 +36 очень
душно
1012.7 962.9
11 16.06 С 5 н/о н/о +30.9 +19.6 51 +37 +37 очень
душно
1012.8 963.1
12 16.06 С 5 н/о н/о +31.2 +19.8 51 +37 +37 очень
душно
1012.4 962.8
13 16.06 С 4 н/о н/о +31.5 +19.1 48 +37 +37 очень
душно
1012.0 962.4
14 16.06 С 6 н/о н/о +31.0 +18.0 46 +35 +35 очень
душно
1011.3 961.6
15 16.06 С 4 н/о н/о +30.9 +18.9 49 +36 +36 очень
душно
1010.9 961.3
16 16.06 СВ 5 н/о н/о +29.4 +18.2 51 +34 +34 очень
душно
1011.1 961.2
17 16.06 СВ 7 н/о н/о +26.8 +17.2 56 +31 +31 душно 1012.6 962.1
18 16.06 СВ 7 н/о н/о +24.5 +14.2 53 +27 +27 жарко 1013.1 962.2 +31.9
19 16.06 СВ 5 н/о н/о +23.1 +17.0 69 +28 +28 душно 1012.9 961.8
20 16.06 С 6 н/о н/о +22.9 +15.4 63 +27 +27 душно 1013.2 962.1
21 16.06 С 5 н/о н/о +22.4 +14.7 62 +26 +26 жарко 1013.8 962.6
22 16.06 С 5 н/о н/о +21.9 +14.9 64 +25 +25 комфорт 1014.2 962.9
23 16.06 С 5 н/о н/о +21.3 +16.0 72 +25 +25 комфорт 1014.2 962.8
00 17.06 С 5 н/о н/о +21.3 +13.9 63 +24 +24 комфорт 1013.7 962.3
01 17.06 С 4 н/о н/о +20.7 +12.8 61 +23 +23 комфорт 1013.3 961.8
02 17.06 С 5 н/о н/о +20.6 +11.5 56 +23 +23 комфорт 1013.2 961.8
03 17.06 С 4 н/о н/о +20.3 +11.7 58 +22 +22 комфорт 1013.3 961.8
04 17.06 С 6 н/о н/о +19.8 +15.2 75 +22 +22 комфорт 1013.6 962.0
05 17.06 С 6 н/о н/о +20.8 +16.1 74 +24 +24 комфорт 1013.9 962.4
06 17.06 С 5 н/о н/о +23.5 +17.2 68 +27 +27 душно 1013.8 962.8 +19.7 609
07 17.06 С 5 н/о н/о +25.8 +18.7 65 +31 +31 очень
душно
1013.5 962.9
08 17.06 ЮВ 2 н/о н/о +28.0 +19.7 61 +34 +34 очень
душно
1013.0 962.8
09 17.06 З 2 н/о н/о +29.1 +18.8 54 +34 +34 очень
душно
1012.7 962.6
10 17.06 С 2 н/о н/о +30.5 +17.5 46 +35 +35 очень
душно
1012.4 962.5
11 17.06 СВ 5 н/о н/о +27.1 +17.8 57 +32 +32 очень
душно
1013.0 962.6
12 17.06 ЮВ 1 н/о н/о +30.5 +19.8 53 +37 +37 очень
душно
1012.3 962.4
13 17.06 ЮЗ 4 н/о н/о +31.9 +20.5 51 +39 +39 очень
душно
1011.5 962.0
14 17.06 С 4 н/о н/о +31.6 +18.9 47 +37 +37 очень
душно
1011.2 961.7
15 17.06 ЮЗ 3 н/о н/о +31.4 +17.7 44 +36 +36 очень
душно
1011.2 961.6
16 17.06 ЮЗ 3 н/о н/о +30.3 +17.7 47 +35 +35 очень
душно
1011.3 961.5
17 17.06 Ю 2 н/о н/о +27.9 +18.0 55 +32 +32 душно 1012.0 961.8
18 17.06 штиль 0 н/о н/о +26.1 +17.7 60 +30 +30 душно 1013.0 962.3 +32.7
19 17.06 СВ 3 н/о н/о +23.2 +16.4 66 +28 +28 душно 1013.6 962.5
20 17.06 СВ 4 н/о н/о +22.3 +17.2 73 +27 +27 душно 1014.0 962.8
21 17.06 В 1 н/о н/о +21.7 +15.7 69 +25 +25 комфорт 1014.3 963.0
22 17.06 З 1 н/о н/о +20.2 +14.9 72 +24 +24 комфорт 1014.7 963.1
23 17.06 С 4 н/о н/о +19.6 +15.4 77 +22 +22 комфорт 1014.6 962.9
00 18.06 СВ 6 н/о н/о +20.1 +14.6 71 +22 +22 комфорт 1014.6 962.9
01 18.06 С 4 н/о н/о +19.3 +15.3 78 +21 +21 комфорт 1014.5 962.7
02 18.06 С 7 н/о н/о +18.8 +17.1 90 +19 +19 1014.6 962.7
03 18.06 СВ 7 н/о н/о +18.8 +16.9 89 +19 +19 1014.8 962.9
05 18.06 С 6 н/о н/о +20.4 +18.8 91 +24 +24 комфорт 1014.3 962.8
06 18.06 С 5 н/о н/о +22.9 +18.6 77 +29 +29 очень
душно
1014.3 963.2 +18.4 310
07 18.06 С 5 н/о н/о +25.3 +18.2 65 +30 +30 душно 1014.4 963.6

 

Местоположение метеостанции Мартина-Франка (Италия): широта 40.63 долгота 17.22 высота над уровнем моря 413 м.

В архиве по умолчанию представлена погода в Мартина-Франка за последнюю неделю. Архивные данные за месяц целиком и за предыдущие месяцы, начиная с января 2011 года, Вы можете получить, выбрав интересующий диапазон дат из раскрывающегося списка и нажав кнопку "Ввод!".


*Определитесь, кто Вы:
робот инопланетянин человек

Внимание! Время в таблицах - всемирное. Для получения местного времени необходимо прибавить поправку, которая равна 1 ч.

Смотрите также архив погоды в соседних городах и на ближайших метеорологических станциях:

Погода в Джоя-дель-Колле (Италия) (29 км)
Погода в Джинозе (Италия) (36 км)
Погода в Матере (Италия) (47 км)
Погода в Бари (Италия) (62 км)
Погода в Бриндиси (Италия) (62 км)
Погода в Бари аэропорту (Италия) (67 км)
Погода в Лечче (Италия) (90 км)
Погода в Латронико (Италия) (119 км)
Погода в Отранто (Италия) (122 км)
Погода в Санта-Мария-ди-Леуке (Италия) (132 км)

Пояснения к столбцам:

Ветер - указаны скорость ветра в м/с - средняя за 10 мин, порывы в срок и между сроками (в фигурных скобках) и направление, откуда дует ветер: С - северный, СВ - северо-восточный, В - восточный, ЮВ - юго-восточный, Ю - южный, ЮЗ - юго-западный, З - западный, СЗ - северо-западный.
Видимость - горизонтальная дальность видимости в метрах или километрах. При видимости от 1 до 10 км при отсутствии осадков обычно наблюдается дымка, при ухудшении видимости до 1 км и менее - туман. В сухую погоду видимость может ухудшаться дымом, пылью или мглою.
Явления - указаны атмосферные явления, наблюдавшиеся в срок или в последний час перед сроком; фигурными скобками обозначены явления, наблюдавшиеся между сроками (за 1-3 часа до срока); квадратными скобками обозначены град или гололедные отложения с указанием их диаметра в мм.
Облачность - указаны через наклонную черту общая и нижняя облачность в баллах и высота нижней границы облаков в метрах; квадратными скобками обозначены формы облаков: Ci - перистые, Cs - перисто-слоистые, Cc - перисто-кучевые, Ac - высококучевые, As - высокослоистые, Sc - слоисто-кучевые, Ns - слоисто-дождевые, Cu - кучевые, Cb - кучево-дождевые. Подробнее классификацию облаков см. в Атласе облаков (PDF).
T - Температура воздуха - температура, измеренная на высоте 2 м над землей.
Td - Температура точки росы - температура, при понижении до которой содержащийся в воздухе водяной пар достигнет насыщения.
f - Относительная влажность воздуха - влажноcть воздуха, измеренная на высоте 2 м над землей.
Te - Эффективная температура - температура, которую ощущает одетый по сезону человек в тени. Характеристика душности погоды. При расчете учитывается влияние влажности воздуха и скорости ветра на теплоощущения человека.
Tes - Эффективная температура на солнце - температура, которую ощущает человек, с поправкой на солнечный нагрев. Характеристика знойности погоды. Зависит от высоты солнца над горизонтом, облачности и скорости ветра. Ночью, в пасмурную погоду, а также при ветре 12 м/с и более поправка равна нулю.
P - Атмосферное давление - приведенное к уровню моря атмосферное давление.
Po - Атмосферное давление - измеренное на уровне метеостанции атмосферное давление.
Tmin - Минимальная температура - минимум температуры воздуха на высоте 2 м над землей.
Tmax - Максимальная температура - максимум температуры воздуха на высоте 2 м над землей.
R - Количество осадков - Количество выпавших осадков за период времени, мм. При наведении курсора мыши на число - период времени, за который выпало указанное количество осадков.
R24 - Количество осадков - Количество выпавших осадков за 24 часа, мм.
S - Снежный покров - Высота снежного покрова, см. При наведении курсора мыши на число - состояние снежного покрова и степень покрытия местности в баллах.